Location: *
(46.3833°S, 157.2000°W)
Time: 23:02:35
(UTC+00:00)

Daily predictions for brighter satellites

Satellite Brightness Start Highest point End
(mag) Time Altitude Azimuth Time Altitude Azimuth Time Altitude Azimuth
SJ 16-02 4.0 14:20:29 16° SE 14:20:29 16° SE 14:23:02 10° E
Cosmos 1603 4.1 14:49:11 56° NE 14:49:49 60° ENE 14:55:24 10° SSE
SL-8 Rocket 3.9 14:56:33 65° N 14:57:35 89° E 15:03:53 10° S
USA 281 4.2 14:51:52 10° SE 14:58:13 46° ENE 15:04:30 10° N
Cosmos 1809 Rocket 4.3 14:59:46 60° S 15:01:01 89° W 15:07:10 10° N
Cosmos 2341 Rocket 3.8 15:02:42 43° NNW 15:04:57 85° W 15:11:17 10° S
USA 215 4.2 15:02:23 10° ESE 15:08:19 37° S 15:10:08 31° SSW
Meteor 2-14 Rocket 4.3 15:06:46 49° SSW 15:08:33 81° W 15:14:39 10° N
Cosmos 2218 Rocket 3.9 15:03:31 10° N 15:09:51 89° W 15:16:12 10° S
ATLAS 2AS CENTAUR R/B 3.4 15:04:39 10° NNW 15:11:34 56° ENE 15:18:43 10° SE
Meteor 2-21 4.4 15:08:40 10° S 15:14:50 86° E 15:20:56 10° N
Gbstr 26 Del rocket 3.8 15:14:51 57° SSW 15:15:31 62° SSE 15:21:49 10° E
BREEZE M DEB (TANK) 3.9 15:19:47 33° N 15:19:47 33° N 15:21:52 10° NNE
ATLAS 3B R/B 3.6 15:17:03 22° SSW 15:20:36 39° SE 15:26:43 10° ENE
Cosmos 304 Rocket 3.6 15:22:33 81° SSW 15:22:48 90° ESE 15:27:34 10° NNE
SL-16 R/B 4.1 15:25:19 16° SSW 15:25:19 16° SSW 15:27:04 10° S
Cosmos 921 Rocket 3.8 15:25:15 43° N 15:25:15 43° N 15:28:19 10° N
Cosmos 1908 Rocket 4.3 15:19:46 10° N 15:24:08 54° E 15:28:31 10° SSE
Cosmos 1025 Rocket 3.1 15:25:10 69° NNE 15:25:10 69° NNE 15:28:56 10° N
COSMOS 2455 4.0 15:28:09 27° NNW 15:28:09 27° NNW 15:31:24 10° N
Cosmos 1959 Rocket 4.4 15:20:18 10° NNW 15:26:35 72° W 15:33:02 10° S
Cosmos 1697 Rocket 4.3 15:26:05 10° SSW 15:31:10 32° SE 15:36:13 10° ENE
Cosmos 2221 Rocket 3.8 15:29:42 19° S 15:32:51 70° E 15:37:15 10° NNE
Cosmos 2366 rocket 4.0 15:27:53 10° NNW 15:34:06 56° WSW 15:40:21 10° S
Cosmos 1484 Rocket 3.0 15:38:12 10° NNE 15:41:37 59° ESE 15:42:55 34° S
Cosmos 405 Rocket 4.4 15:45:25 16° N 15:45:25 16° N 15:46:08 10° N
Cosmos 371 Rocket 3.2 15:45:41 46° SW 15:46:51 62° WNW 15:51:35 10° N
SPOT 1/Viking Rocket 4.4 15:45:13 10° NE 15:50:15 52° ESE 15:55:22 10° S
Meteor 2-8 Rocket 4.4 15:45:21 10° N 15:51:33 88° W 15:57:48 10° S
SL-4 R/B 3.9 15:53:12 13° NNW 15:53:12 13° NNW 15:53:54 10° N
SL-16 R/B 2.5 15:45:48 10° SSE 15:52:10 85° WSW 15:58:28 10° NNW
ISS -3.9 15:52:14 80° W 15:52:23 84° SSW 15:55:53 10° ESE
SeaSat 1 4.2 15:49:00 10° S 15:50:55 17° SSW 15:50:55 17° SSW
Cosmos 1656 3.5 15:51:01 24° SSW 15:54:25 72° WNW 15:59:54 10° NNE
Thor Agena Rocket 4.5 15:52:04 10° NE 15:57:10 51° ESE 16:02:21 10° S
Cosmos 1900 4.4 15:55:36 30° WNW 15:58:01 61° SW 16:03:05 10° SSE
Cosmos 1821 Rocket 4.0 15:52:52 10° NNW 15:58:50 53° WSW 16:04:55 10° S
SJ 16-02 1.2 15:57:01 32° SSW 15:58:58 68° WNW 16:03:15 10° N
Cosmos 1000 Rocket 4.4 15:54:49 10° S 16:01:15 83° W 16:07:32 10° N
Cosmos 1943 4.4 16:01:49 23° SW 16:01:49 23° SW 16:06:10 10° S
Cosmos 2058 4.4 15:58:06 10° S 16:01:51 36° ESE 16:05:32 10° NE
Cosmos 1980 Rocket 4.0 15:59:25 10° S 16:04:12 27° SE 16:08:56 10° ENE
Cosmos 1727 Rocket 4.0 15:58:20 10° SSW 16:04:39 64° W 16:10:55 10° N
MOS 1 Rocket 4.0 16:01:42 10° NNW 16:05:41 31° W 16:05:41 31° W
Meteor 2-21 Rocket 4.5 16:00:43 10° SSW 16:06:41 56° W 16:12:36 10° N
CBERS-1 3.9 16:03:07 10° N 16:08:15 71° WNW 16:13:28 10° SSW
USA 32 4.2 16:05:23 10° NNW 16:10:28 49° W 16:15:38 10° S
Cosmos 1833 Rocket 3.2 16:05:21 10° NNW 16:10:56 65° ENE 16:16:35 10° SSE
Cosmos 1867 3.5 16:08:16 14° NW 16:12:57 62° SW 16:18:20 10° SSE
Cosmos 2123 Rocket 4.0 16:07:46 10° S 16:14:04 88° ESE 16:20:18 10° N
Cosmos 1190 Rocket 3.9 16:10:43 10° SSW 16:16:00 78° WNW 16:21:18 10° NNE
SMAP 3.1 16:11:46 10° N 16:16:22 55° W 16:21:03 10° SSW
ARIANE 5 R/B 2.7 16:13:11 10° NNE 16:18:10 71° ESE 16:23:15 10° S
Cosmos 2360 4.4 16:16:24 16° SW 16:20:53 52° WNW 16:26:24 10° N
Cosmos 407 Rocket 4.4 16:25:56 19° WSW 16:28:28 28° W 16:32:55 10° NNW
Resurs 1-3 4.1 16:24:13 10° NNE 16:28:30 63° ESE 16:32:50 10° S
Cosmos 1934 Rocket 4.0 16:22:40 10° N 16:29:03 84° W 16:35:34 10° S
Cosmos 1954 Rocket 4.0 16:26:34 10° SSW 16:31:55 68° WNW 16:37:12 10° N
YAOGAN 1 3.2 16:29:43 10° NNE 16:33:56 59° ESE 16:38:13 10° S
USA 307 1.5 16:34:33 38° SW 16:34:43 39° SSW 16:36:20 10° SE
Cosmos 1420 Rocket 4.2 16:31:10 10° NW 16:36:08 45° WSW 16:41:11 10° SSE
Cosmos 1371 Rocket 3.9 16:32:44 10° NNW 16:37:57 81° WSW 16:43:12 10° SSE
Meteor 1-28 Rocket 3.3 16:35:18 10° S 16:38:25 37° WSW 16:41:30 10° NW
USA 281 3.6 16:36:29 10° SSE 16:42:39 42° SW 16:48:45 10° WNW
Cosmos 1975 Rocket 3.1 16:38:49 10° SSW 16:43:18 66° W 16:47:44 10° N
CZ-4C R/B 3.2 16:34:56 10° NNW 16:43:56 85° NE 16:51:20 10° SE
Cosmos 1315 Rocket 3.6 16:40:58 10° NW 16:44:15 26° WSW 16:47:36 10° SSW
USA 229 DEB 3.6 16:42:44 11° SW 16:48:52 53° WNW 16:54:30 10° NNE
USA 229 3.6 16:42:46 10° SW 16:48:56 54° WNW 16:54:34 10° NNE
Cosmos 44 Rocket 3.1 16:45:28 10° NW 16:50:11 86° SW 16:54:51 10° SE
Cosmos 1869 4.5 16:47:51 10° WNW 16:50:14 17° WSW 16:52:38 10° SSW
USA 215 3.7 16:44:09 10° ENE 16:50:38 61° SSE 16:57:08 10° SW
Cosmos 676 Rocket 4.1 16:50:09 10° SSW 16:55:25 59° WNW 17:00:38 10° N
Resurs 01 Rocket 2.4 16:51:27 10° NNE 16:55:48 55° ESE 17:00:12 10° S
Cosmos 2251 Rocket 4.2 16:51:30 10° SW 16:56:14 34° WNW 17:00:56 10° NNW
Cosmos 1300 Rocket 4.4 16:53:32 10° NW 16:57:15 27° WSW 17:01:00 10° SSW
UNK 4.2 16:55:03 10° S 16:59:26 40° WSW 17:03:45 10° NW
BREEZE M DEB (TANK) 2.0 16:58:40 10° NW 17:01:37 55° NNE 17:03:47 10° ESE
Gbstr 26 Del rocket 4.2 16:56:51 11° WSW 17:02:10 56° NW 17:08:51 10° NE
ATLAS 2AS CENTAUR R/B 3.2 16:55:54 10° WNW 17:02:46 44° SW 17:09:48 10° SSE
Cosmos 2084 Rocket 3.5 17:04:47 10° SW 17:08:59 75° SE 17:13:03 10° NE
Cosmos 1862 4.0 17:06:48 10° SSW 17:10:01 28° W 17:13:12 10° NNW
Cosmos 2082 Rocket 3.9 17:05:58 10° N 17:11:10 40° ENE 17:16:25 10° SE
ATLAS 3B R/B 2.8 17:05:16 10° SW 17:11:27 55° WNW 17:18:00 10° NNE
Timation 1 Rocket 4.4 17:05:57 10° NNW 17:11:56 85° WSW 17:18:00 10° SSE
Cosmos 332 Rocket 4.4 17:08:36 10° SW 17:13:07 37° WNW 17:17:35 10° N
Cosmos 1697 Rocket 3.0 17:09:51 10° SW 17:15:20 49° WNW 17:20:47 10° N
COSMO-SKYMED 1 2.6 17:11:23 10° SSE 17:15:36 86° ENE 17:19:44 10° NNW
Cosmos 1110 Rocket 4.0 17:13:46 10° NNW 17:18:57 82° WSW 17:24:12 10° SSE
Cosmos 1850 Rocket 4.1 17:15:32 10° SSW 17:20:57 88° WNW 17:26:17 10° NNE
